Tracking 19192 objects as of 19-Jun-2018
HD Live streaming from Space Station
objects crossing your sky now

FENGYUN 1C DEB

Track FENGYUN 1C DEB now!
10-day predictions


NORAD ID: 37054
Int'l Code: 1999-025EEN
Perigee: 768.5 km
Apogee: 921.2 km
Inclination: 98.7 °
Period: 101.7 minutes
Semi major axis: 7215 km
RCS: 0.0101 m2 (small)
Launch date: May 10, 1999
Source: People's Republic of China (PRC)
Launch site: Taiyaun Space Center, China (TSC)

Note: This is SATELLITE DEBRIS
aabbcc
Your satellite tracking list
Your tracking list is empty




NASA's NSSDC Master Catalog

Two Line Element Set (TLE):
1 37054U 99025EEN 18169.36655583 +.00000030 +00000-0 +34442-4 0  9994
2 37054 098.6711 218.1852 0105830 065.0779 296.1349 14.16351015256993
Source of the keplerian elements: AFSPC